Theta_e
333 338 343 345 344 341 346 347 345 343 340 336 333 334 336 334 333 330 341 343 341 344 341 351 350 350 351 351 351 350 350 350 348 348 348 345 345 346 345 345 347 348 346 346 346 347 348 348 348
333 338 341 338 344 345 344 341 345 341 337 332 334 334 335 335 344 343 344 343 342 343 342 347 351 349 350 350 349 349 348 346 346 348 347 342 344 346 346 345 344 345 345 345 345 345 346 347 347
333 337 337 340 343 341 342 340 340 338 335 336 336 331 332 334 344 340 341 342 344 344 342 343 350 351 348 348 347 347 345 345 345 345 343 340 343 344 344 344 343 342 344 343 342 345 344 346 345
333 334 331 337 339 338 341 331 336 338 337 335 333 335 331 332 341 341 340 342 342 344 342 343 351 349 347 347 346 346 345 344 344 340 339 339 341 341 340 343 341 342 342 343 343 342 343 344 344
331 327 327 330 331 330 327 325 324 329 329 331 334 334 334 335 340 341 342 341 340 340 338 341 348 346 346 345 347 346 343 341 339 339 337 337 338 338 336 339 340 340 340 340 341 342 344 343 345
328 323 323 325 328 326 323 319 325 320 321 323 329 333 333 332 340 342 342 341 340 338 337 338 341 344 348 348 348 346 339 336 338 339 337 336 337 337 335 334 336 337 338 339 338 341 342 342 343
329 324 326 329 327 322 324 317 321 318 315 325 320 330 328 333 340 342 343 342 341 340 340 337 343 350 349 348 346 346 340 336 340 339 337 336 335 335 334 333 332 333 334 335 334 337 339 343 340
326 323 329 327 323 319 320 317 320 318 317 313 319 325 323 322 332 342 344 344 343 342 342 339 343 349 348 347 346 346 343 339 340 338 337 336 334 333 333 332 331 330 331 331 332 336 339 339 338
316 315 318 321 321 318 317 318 317 317 316 314 315 314 313 331 337 339 343 344 344 345 345 343 345 346 345 345 345 346 343 340 333 331 335 335 330 326 326 326 325 329 328 329 329 330 335 336 338
316 311 313 315 317 319 318 318 317 318 314 313 312 311 313 322 333 331 330 336 345 346 347 348 348 348 348 346 344 343 341 342 339 332 327 324 321 319 317 320 318 325 326 325 325 323 324 331 333
319 316 317 319 319 319 318 317 317 316 314 310 310 309 308 309 310 311 311 312 315 328 343 347 349 351 349 348 346 345 343 341 341 336 329 323 320 317 314 316 314 311 313 314 315 316 316 317 326
321 319 319 320 319 317 318 316 311 310 310 309 308 308 308 307 307 308 307 309 311 314 317 330 346 348 348 348 347 345 344 343 342 339 336 331 327 321 316 317 316 310 309 309 310 312 312 313 315
317 316 317 316 315 315 316 314 310 309 309 306 307 306 306 306 307 307 307 309 309 311 314 317 323 342 346 348 347 345 343 342 342 341 338 333 328 324 319 318 318 311 308 308 308 308 308 308 311
316 316 314 313 314 315 317 314 312 309 307 305 305 304 304 304 305 307 307 307 308 309 310 313 323 329 342 346 347 345 344 342 342 341 340 337 332 326 320 318 319 317 310 308 309 308 308 306 307
316 314 313 312 311 316 314 312 309 308 306 304 302 302 303 304 304 304 307 307 308 309 309 310 312 317 329 337 341 343 343 342 341 340 340 339 337 331 324 318 319 319 315 310 309 309 308 307 306
313 311 313 313 314 314 314 313 307 306 305 303 302 301 302 303 304 305 306 307 308 308 309 309 309 310 313 316 324 334 337 339 339 339 339 339 338 336 329 321 317 319 318 313 310 309 308 308 307
309 313 312 311 313 315 313 311 305 304 304 303 301 301 303 302 304 305 305 305 305 306 307 308 308 308 309 311 313 314 315 321 327 330 331 332 333 334 331 326 319 318 319 315 312 310 308 308 307
313 313 312 311 312 309 307 306 305 304 303 302 301 301 302 302 302 304 303 303 305 305 305 307 307 307 307 307 307 309 311 312 313 314 316 317 318 321 327 327 322 318 318 316 313 311 309 308 308
313 313 313 312 313 308 307 306 305 304 303 302 302 302 302 302 302 304 304 303 303 304 303 305 307 306 306 306 305 305 305 305 306 308 310 312 312 313 313 314 318 319 317 316 314 311 309 309 307
315 315 313 313 314 308 307 306 306 305 304 304 303 303 303 303 301 302 304 303 303 303 303 303 307 306 305 305 305 305 305 305 305 305 305 306 306 308 310 313 313 311 314 314 313 311 309 308 307
314 314 314 315 314 307 306 308 305 303 302 302 302 302 303 302 302 301 303 304 303 303 303 303 305 305 305 305 305 304 303 303 303 304 305 306 305 305 305 306 310 312 312 310 312 311 309 307 307
315 313 315 316 315 312 310 312 306 302 301 301 300 297 298 300 300 301 302 303 304 303 303 303 303 304 304 304 303 302 302 302 303 304 304 307 306 306 305 306 307 309 310 310 311 310 310 307 306
315 311 313 315 314 313 313 316 311 300 301 301 301 299 298 297 297 300 302 303 303 304 303 303 303 303 303 303 303 302 302 302 303 305 306 307 305 305 306 306 307 307 308 308 310 310 309 308 307
310 310 308 310 310 312 310 313 310 301 300 301 301 300 298 297 296 297 302 303 303 303 302 302 302 303 303 302 303 302 302 302 303 304 304 304 304 303 304 306 307 306 305 307 308 308 309 308 308
308 303 305 306 311 312 311 312 309 302 299 300 301 300 298 297 296 295 298 301 302 302 302 302 302 302 302 302 303 303 302 302 302 302 302 301 301 303 303 303 307 306 305 306 306 307 308 309 307
310 307 306 306 305 306 308 310 307 300 299 299 300 299 297 297 296 295 298 300 301 302 302 302 303 302 302 302 302 302 301 302 302 302 301 300 300 302 302 302 305 307 306 305 306 306 307 308 308
307 306 306 306 305 304 304 305 302 300 299 300 300 298 297 297 296 296 299 300 301 302 302 302 301 301 302 302 302 301 301 302 302 301 300 300 300 301 301 301 306 308 307 306 305 306 307 308 308
306 304 306 302 305 305 302 301 304 300 299 299 299 297 297 297 297 296 299 301 302 302 302 301 301 301 301 301 302 301 301 301 301 300 299 300 300 300 300 301 303 304 307 306 305 305 305 307 308
301 303 302 302 301 304 303 302 299 301 299 299 298 297 297 297 297 297 299 301 301 301 301 301 301 301 301 302 301 301 301 301 300 299 299 300 300 300 300 300 302 303 303 304 306 305 305 305 307
302 302 300 303 302 299 298 302 300 298 298 298 298 298 297 297 298 298 299 300 300 299 299 299 299 300 300 299 300 299 298 299 299 299 299 299 299 300 300 300 300 301 302 304 306 305 305 304 305
Wind_Speed
10 8 5 3 4 5 2 3 2 3 4 1 2 1 3 2 3 2 2 16 8 21 21 18 16 15 14 12 10 8 7 6 6 5 4 3 4 6 5 5 5 6 6 8 8 8 9 10 11
9 6 2 2 5 4 5 4 3 4 0 3 1 2 3 1 2 2 7 17 13 22 21 19 16 16 13 11 9 8 7 6 6 5 4 3 3 3 3 5 4 4 4 6 8 7 8 10 10
5 5 3 4 3 2 3 4 6 5 1 1 1 1 3 1 1 4 4 18 16 22 22 20 17 15 13 11 10 8 7 7 6 6 5 3 4 3 2 5 4 4 2 3 6 7 6 8 8
4 6 4 5 2 2 2 5 4 6 4 2 0 2 2 2 1 2 11 18 17 20 19 17 16 15 14 12 10 9 8 7 6 5 4 4 4 2 3 4 3 2 1 3 3 5 5 6 6
5 3 4 3 3 3 3 4 6 4 4 4 2 2 2 3 2 6 15 18 18 19 18 17 15 15 16 14 12 10 9 8 6 5 5 5 4 2 1 3 4 5 1 0 1 3 3 5 6
4 3 5 1 3 5 5 4 3 4 5 7 6 4 3 7 1 8 15 18 16 17 18 17 16 15 14 14 13 12 10 9 8 7 5 5 4 3 2 1 2 2 3 3 4 3 2 4 4
5 3 3 2 2 4 3 8 3 4 6 4 3 3 5 8 7 9 15 17 17 16 17 18 17 15 14 14 15 14 12 11 10 9 7 6 4 4 2 1 1 1 2 2 2 4 2 4 5
4 4 3 2 1 3 5 7 1 3 4 8 4 4 5 9 10 11 14 16 17 17 18 19 19 17 17 16 15 14 13 12 11 10 9 8 6 5 4 2 2 2 1 1 2 3 9 7 8
3 4 0 2 3 3 4 6 3 1 2 4 5 9 14 19 4 10 9 11 12 13 16 18 19 19 18 18 17 15 14 14 14 14 12 10 10 8 7 6 4 3 3 2 2 2 7 8 11
5 3 3 3 2 3 5 3 5 4 7 7 5 18 26 23 17 18 15 9 4 11 15 16 18 18 19 20 19 18 17 18 17 17 16 15 13 11 10 9 7 5 4 4 3 3 6 8 9
2 3 3 1 3 3 4 6 4 6 6 7 5 8 16 23 25 21 20 17 12 9 12 17 19 19 23 24 22 21 21 19 19 19 19 18 16 15 14 13 10 8 8 8 8 8 7 7 8
2 1 2 4 2 5 5 5 8 11 1 3 6 5 15 17 20 20 21 24 22 17 13 7 19 26 26 27 26 24 23 21 20 20 19 19 19 18 16 15 13 10 10 9 9 9 8 8 8
1 3 5 5 7 4 3 9 9 9 5 6 13 18 16 17 19 22 24 31 30 29 24 20 11 22 27 29 29 27 26 25 23 22 22 22 22 21 19 17 16 13 12 11 10 10 9 10 10
2 4 7 4 6 5 3 7 6 7 6 12 14 13 11 16 17 22 29 30 33 33 33 29 23 6 13 23 27 28 26 25 25 25 25 24 25 24 23 21 20 17 15 13 12 11 11 9 10
2 6 5 5 5 3 3 7 9 2 3 12 11 9 11 14 22 23 24 27 29 31 34 36 32 26 11 8 13 21 25 24 24 25 27 27 27 28 26 26 25 22 18 16 15 14 14 12 12
4 5 3 3 8 5 3 2 7 5 7 9 9 8 8 10 17 24 27 27 28 30 31 31 31 31 26 26 11 7 11 16 20 24 26 28 29 30 30 29 30 26 23 21 19 18 17 15 15
7 1 2 6 5 2 7 2 5 6 5 8 7 7 7 7 16 21 22 23 25 27 28 28 29 30 28 26 22 24 20 9 10 17 20 23 26 29 31 33 33 28 26 26 23 22 20 19 18
1 1 2 4 5 9 7 4 2 4 5 6 5 6 6 6 6 14 19 21 22 23 24 25 24 26 25 25 23 21 20 21 21 19 10 12 17 21 27 31 34 32 28 29 27 26 24 22 19
2 1 3 4 1 6 3 5 2 1 3 5 4 4 5 5 7 9 13 18 20 21 23 23 19 21 23 25 25 24 23 21 20 19 17 16 16 10 14 21 29 33 33 32 33 29 26 25 20
1 2 4 3 3 5 4 3 2 1 1 1 2 2 3 3 6 8 9 13 16 18 18 19 16 16 17 16 16 15 17 19 19 19 17 16 16 15 14 10 16 23 31 33 34 32 30 28 24
2 3 2 3 4 5 6 2 5 2 2 1 2 3 4 4 5 7 9 8 11 14 15 15 12 12 12 12 12 12 13 17 18 20 18 17 16 16 16 14 13 12 20 31 32 35 35 26 26
3 2 1 2 1 3 4 5 5 5 4 2 4 5 7 7 6 7 10 10 10 11 12 12 11 11 12 12 14 15 16 16 18 20 19 16 15 17 17 16 13 12 13 20 23 34 35 34 24
6 2 2 1 4 2 2 2 5 6 4 3 4 5 6 7 7 9 13 12 12 12 15 15 15 13 13 13 14 15 16 16 17 17 17 12 18 18 18 16 15 14 13 14 17 23 30 36 31
4 2 5 4 3 1 2 4 4 6 7 4 1 5 6 7 8 13 16 13 13 15 19 21 20 19 15 16 17 18 19 19 17 14 15 18 20 21 21 20 17 15 16 16 17 19 26 32 36
8 6 4 5 4 5 1 0 7 7 8 7 3 4 7 8 8 9 11 12 14 17 22 26 25 24 21 20 21 22 22 21 20 18 17 21 23 22 21 22 20 17 17 19 20 21 24 29 36
4 4 4 4 3 5 4 6 5 7 8 7 3 4 7 8 7 8 11 12 13 19 23 26 28 29 27 25 25 24 24 27 24 20 21 23 24 24 22 24 21 19 19 21 21 22 25 28 34
1 4 3 2 1 1 3 6 3 3 6 5 3 5 7 7 7 8 10 12 17 22 26 29 32 34 30 32 35 31 27 27 25 26 27 23 22 22 24 25 20 20 20 20 21 21 23 26 32
3 4 2 3 3 5 5 6 5 10 11 7 5 6 7 6 7 7 12 18 25 31 34 34 36 38 37 36 37 35 33 33 30 31 30 26 25 22 22 24 22 23 21 21 20 19 23 24 28
3 1 4 3 4 4 3 6 5 14 14 8 7 7 7 7 7 7 16 25 31 34 36 38 38 36 39 38 35 39 44 39 36 31 31 26 27 25 24 24 21 21 22 24 21 21 21 23 26
1 2 4 4 4 1 3 8 4 8 10 8 6 6 6 7 8 9 19 24 27 30 33 33 35 36 38 42 36 37 36 40 40 33 30 28 28 27 25 21 24 24 24 22 21 23 24 24 25
Wind_Direction
347 338 341 49 51 59 352 348 296 297 331 336 32 99 142 133 129 188 320 171 160 170 168 169 171 166 169 168 164 159 158 157 160 151 141 142 135 126 106 114 116 109 99 109 106 98 106 111 114
345 343 24 72 74 45 304 277 289 247 21 92 83 45 36 334 141 136 130 173 167 171 171 174 172 169 171 173 174 177 184 190 193 176 182 192 168 155 134 121 107 114 116 108 111 111 115 119 120
342 7 73 81 97 93 272 298 293 312 196 152 314 99 163 276 177 185 193 169 169 175 176 175 171 173 174 178 181 188 194 196 203 206 204 193 170 172 164 131 122 113 104 107 118 119 126 131 126
346 15 36 75 37 241 239 310 294 336 346 63 74 356 308 257 54 158 157 167 167 176 180 177 173 175 175 183 186 193 199 199 194 191 177 156 154 172 147 165 158 158 112 111 103 132 142 146 129
39 51 52 63 306 264 277 293 308 0 349 330 351 317 283 39 39 143 159 169 170 175 179 179 182 183 181 185 190 196 195 196 197 186 177 161 163 177 155 172 186 207 211 205 302 160 150 162 144
42 92 58 352 270 291 304 347 299 18 345 323 25 344 301 358 235 165 169 173 174 173 179 184 186 187 188 188 192 198 206 202 195 189 190 181 179 184 188 182 195 212 226 231 211 161 138 211 181
101 75 182 207 250 307 340 327 44 357 329 338 274 8 286 29 347 183 176 178 179 182 184 189 191 193 195 201 197 202 211 206 198 195 193 191 193 189 199 202 224 220 226 251 223 170 195 212 205
100 88 134 264 286 285 346 349 356 34 306 305 335 21 334 321 312 182 176 184 188 194 197 197 199 198 200 206 210 208 215 210 205 202 201 201 202 202 200 212 224 257 257 273 243 231 204 209 214
101 60 309 277 169 293 344 16 311 349 3 340 331 32 340 351 139 162 165 185 200 210 215 210 209 209 211 212 213 219 220 221 220 214 212 208 220 219 220 224 230 238 248 247 249 249 216 235 235
76 96 220 231 240 312 314 0 320 21 355 358 5 7 21 47 62 60 44 25 297 251 237 231 228 232 229 223 222 222 223 221 224 219 217 224 227 228 229 228 232 221 229 239 244 236 230 233 237
103 170 193 298 272 353 311 339 335 3 26 20 348 352 15 41 42 44 36 29 11 343 276 257 240 240 240 235 233 234 232 228 230 231 228 230 230 226 227 222 231 235 227 224 226 225 231 240 237
348 261 220 276 348 337 303 309 65 58 130 312 34 25 42 42 41 39 36 35 31 26 17 281 255 249 244 239 239 238 238 238 239 244 244 244 241 233 231 229 232 234 231 228 226 229 236 242 242
127 324 318 307 318 280 303 66 96 61 18 26 56 47 42 43 40 43 45 48 42 40 32 20 314 247 254 244 242 243 243 243 241 244 245 246 248 251 247 238 235 234 230 227 226 232 240 245 243
321 293 294 314 354 28 18 76 55 30 345 52 48 43 37 42 32 41 41 40 46 44 42 39 31 345 259 260 251 248 248 248 249 249 250 250 252 254 253 249 244 240 237 236 236 239 240 239 237
346 350 346 29 338 22 287 54 360 293 60 57 36 32 40 35 43 40 46 46 46 47 46 46 47 49 32 305 269 256 258 258 259 258 255 251 250 251 252 254 251 247 243 239 238 238 234 235 237
46 48 32 346 8 1 61 54 2 24 74 53 41 31 34 26 41 52 54 54 50 49 45 46 47 50 50 50 32 301 278 272 272 270 267 260 256 252 247 249 250 249 243 242 241 239 236 235 237
8 102 348 328 42 327 26 87 345 8 68 69 44 33 42 31 36 49 51 51 49 48 44 44 44 43 44 46 54 55 53 25 294 278 277 277 269 263 258 253 252 248 242 241 241 241 241 240 239
280 7 302 272 350 54 60 108 34 6 64 77 48 33 39 41 11 43 48 47 47 46 44 45 46 41 36 34 36 41 40 40 40 36 358 303 293 279 266 261 257 256 251 248 241 238 239 243 244
136 162 256 265 26 83 86 136 136 29 66 78 57 37 33 24 346 41 44 44 45 41 37 37 42 37 32 31 28 25 21 18 19 22 23 29 28 347 287 276 269 258 251 250 247 244 238 238 239
187 281 287 294 15 97 191 162 192 215 235 160 118 69 29 3 348 8 24 33 35 32 31 31 35 29 29 31 32 24 13 5 1 2 4 5 5 8 12 329 277 270 265 252 248 243 238 239 230
292 199 199 230 28 47 129 265 206 210 180 254 305 306 294 297 319 331 346 355 13 19 18 20 22 15 12 9 6 7 5 355 346 343 344 352 355 356 357 347 342 314 275 266 252 248 240 236 229
310 184 310 235 64 243 181 288 224 203 196 233 280 302 291 300 313 303 315 324 336 350 354 354 350 346 348 348 349 351 350 348 342 330 322 327 342 345 348 344 336 324 315 286 276 261 251 237 233
233 352 255 211 192 81 220 128 290 137 206 202 289 335 319 289 274 273 286 301 311 318 332 332 330 323 325 328 330 331 332 332 332 333 325 322 329 330 332 335 333 331 320 310 293 275 259 249 233
302 39 51 58 100 356 219 153 234 189 186 170 261 337 328 317 300 293 277 294 303 322 328 329 320 311 306 311 314 316 318 314 314 317 322 315 315 318 315 312 311 316 322 317 305 291 268 256 249
36 38 340 354 7 236 285 296 261 196 153 160 174 300 303 303 308 309 277 288 310 321 326 326 320 311 295 303 307 308 306 300 298 301 306 311 305 303 306 305 293 300 313 313 311 297 285 266 249
52 116 136 266 260 284 320 239 276 170 177 167 111 302 298 308 297 300 285 291 307 323 325 320 315 306 293 290 293 297 301 299 291 291 301 304 303 292 301 301 280 284 302 308 308 300 295 277 258
115 56 150 104 12 359 258 288 317 164 199 202 280 310 294 297 298 290 288 299 307 307 310 312 315 305 296 292 293 291 296 295 285 293 301 293 302 295 294 300 278 277 285 300 303 301 297 291 264
91 150 58 20 275 272 283 283 236 201 212 220 257 276 283 277 310 317 308 306 307 306 307 310 314 313 308 304 305 292 299 296 288 295 295 290 300 300 294 297 283 281 275 288 290 300 307 298 276
25 37 59 126 158 216 293 262 222 202 199 195 237 256 276 286 286 286 292 305 307 306 305 303 301 302 302 296 300 300 293 295 286 288 292 288 295 301 292 293 287 277 279 278 278 287 300 306 290
210 220 152 138 221 161 147 270 294 228 173 182 238 281 270 260 271 276 296 301 298 295 296 295 295 294 300 298 298 300 292 295 286 279 291 292 290 300 293 286 295 287 282 272 269 285 288 297 297